Starlink 35441

operational
NORAD ID: 65869 Int'l Des: 2025-223 Owner: SPXS Country: US Constellation: starlink
NOTLE

About Starlink 35441

Description loading...

Live Position

Loading 3D Globe...

Upcoming Passes

Altitude History

Altitude vs Time

uPlot chart will show altitude changes over time

Two-Line Element Set

1 65869U 25223R 25341.00002315 .00070318 00000-0 23681-2 0 9995
2 65869 53.1602 4.9431 0001130 99.5933 169.3331 15.30143131 5910
Epoch: Dec 7, 2025 • Age: 14 hours

Current Status

Altitude 483.4 km
Velocity 7.62 km/s
Sub-Earth Point -26.80°S, 80.26°W
Launch Date Oct 3, 2025
Age 0.1 years
Type internet

Technical Details

Classification Payload
Mass 575.00 kg
Dry Mass 530.00 kg
Total Mass 575.00 kg
Length 0.30 m
Diameter 4.10 m
Span 29.00 m
Shape Box + pan
Manufacturer SPXS
Bus Type Starlink V2MO
Phase Status In Orbit
Owner/State SPXS/US

Large Constellations

Loading constellations...